sat.trackr.live / text

‹ back to catalog

STARLINK-32745

NORAD 62755 · 2025-014W

PAYLOAD ACTIVE UNKNOWN

§ Identity

Operator
Country
US
Launch date
2025-01-21
Launch site
AFETR
Launch vehicle
Mass (kg)
RCS (m²)

Purposes: comms

External: N2YO · Heavens-Above · Gunter

§ Orbital elements

Epoch: 2026-05-25T04:00:03.998880Z

Period
94.27 min
Inclination
42.9990°
Eccentricity
0.0000873
Mean motion
15.27558081 rev/d
Perigee alt
482.5 km
Apogee alt
483.7 km
Semi-major
6,861.3 km
B*
9.0879e-4
RAAN
82.6489°
Arg perigee
272.9464°
Mean anomaly
15.5982°
Rev number
579

§ Raw data

STARLINK-327451 62755U 25014W   26145.16671295  .00024813  00000+0  90879-3 0  99952 62755  42.9990  82.6489 0000873 272.9464  15.5982 15.27558081  5792

JSON: /api/v1/satellites/62755 · /tle

For live sub-satellite position, see the globe view (requires WebGL).

§ Visibility from observer

Set your observer location to see the next 7 days of passes ≥ 10°. The values pass through the URL so the page stays shareable.

No JS? Fill the form by hand. The geolocation button needs JavaScript.